N5CNB Weather Reports


time (UTC)temp
F
wind
direction
speed
knots
gust
knots
rain 1hr
in
rain 24hr
in
rain mn
in
humidity
%
barometer
mb
20260505223004 81 57 8.7 17.4 0.00 0.00 0.00 77 1006.8
20260505221507 82 156 7.8 15.6 0.00 0.00 0.00 76 1006.7
20260505220006 82 198 6.1 15.6 0.00 0.00 0.00 76 1006.8
20260505214506 82 51 7.8 16.5 0.00 0.00 0.00 75 1006.9
20260505213006 83 106 7.0 13.9 0.00 0.00 0.00 76 1007.2
20260505211504 83 226 8.7 16.5 0.00 0.00 0.00 75 1007.5
20260505210006 83 164 7.8 13.0 0.00 0.00 0.00 74 1007.5
20260505204505 82 144 9.6 15.6 0.00 0.00 0.00 77 1007.7
20260505203005 82 145 7.8 15.6 0.00 0.00 0.00 75 1008.0
20260505201507 83 128 4.3 15.6 0.00 0.00 0.00 76 1008.2
20260505200013 83 105 8.7 15.6 0.00 0.00 0.00 75 1008.3
20260505194506 83 181 5.2 13.0 0.00 0.00 0.00 75 1008.6
20260505193008 82 184 5.2 18.2 0.00 0.00 0.00 77 1008.8
20260505191507 81 153 8.7 14.8 0.00 0.00 0.00 78 1008.9
20260505190005 81 179 6.1 13.0 0.00 0.00 0.00 78 1009.0
20260505184506 82 208 5.2 10.4 0.00 0.00 0.00 77 1009.0
20260505183007 80 136 5.2 10.4 0.00 0.00 0.00 79 1009.1
20260505181508 80 153 7.0 13.9 0.00 0.00 0.00 80 1009.2
20260505180009 80 240 5.2 10.4 0.00 0.00 0.00 79 1009.2
20260505174505 81 160 5.2 11.3 0.00 0.00 0.00 79 1009.4
20260505170014 80 259 2.6 9.6 0.00 0.00 0.00 81 1009.8
20260505164505 79 228 3.5 10.4 0.00 0.00 0.00 82 1009.9
20260505163009 78 118 3.5 10.4 0.00 0.00 0.00 84 1009.8
20260505161509 77 264 5.2 12.2 0.00 0.00 0.00 83 1009.9
20260505153010 76 269 4.3 7.8 0.00 0.00 0.00 85 1009.7
20260505151509 75 160 3.5 10.4 0.00 0.00 0.00 86 1009.7
20260505123009 69 193 3.5 6.1 0.00 0.00 0.00 91 1009.0
20260505121514 69 165 3.5 5.2 0.00 0.00 0.00 91 1009.1
20260505120017 69 195 1.7 5.2 0.00 0.00 0.00 91 1009.0
20260505114515 68 255 0.9 5.2 0.00 0.00 0.00 91 1008.9
20260505113018 68 161 1.7 7.0 0.00 0.00 0.00 91 1008.7
20260505111514 68 194 2.6 6.1 0.00 0.00 0.00 91 1008.6
20260505101519 68 207 1.7 6.1 0.00 0.00 0.00 91 1008.8
20260505100017 68 195 1.7 7.0 0.00 0.00 0.00 91 1008.9
20260505094517 67 233 2.6 7.0 0.00 0.00 0.00 90 1008.7
20260505093019 67 200 4.3 7.8 0.00 0.00 0.00 90 1008.9
20260505091515 67 191 0.9 3.5 0.00 0.00 0.00 90 1009.2
20260505090019 68 145 0.9 3.5 0.00 0.00 0.00 90 1009.1
20260505084518 68 205 2.6 5.2 0.00 0.00 0.00 89 1009.2
20260505083018 68 152 1.7 6.1 0.00 0.00 0.00 89 1009.3
20260505081529 68 144 3.5 6.1 0.00 0.00 0.00 89 1009.5
20260505080020 68 169 1.7 7.0 0.00 0.00 0.00 88 1009.6
20260505074521 68 131 1.7 7.0 0.00 0.00 0.00 88 1009.7
20260505073018 68 217 1.7 6.1 0.00 0.00 0.00 88 1009.9
20260505071539 68 174 2.6 7.0 0.00 0.00 0.00 88 1009.9
20260505070021 69 185 4.3 9.6 0.00 0.00 0.00 87 1009.9
20260505064524 68 230 3.5 8.7 0.00 0.00 0.00 87 1010.0
20260505063015 69 243 2.6 11.3 0.00 0.00 0.00 87 1010.0
20260505061518 69 125 2.6 8.7 0.00 0.00 0.00 86 1010.2
20260505060020 69 134 5.2 11.3 0.00 0.00 0.00 86 1010.2
20260505054532 69 205 4.3 8.7 0.00 0.00 0.00 85 1010.4
20260505041516 70 212 4.3 10.4 0.00 0.00 0.00 83 1011.1
20260505040026 70 133 4.3 9.6 0.00 0.00 0.00 82 1011.2
20260505033030 71 140 6.1 14.8 0.00 0.00 0.00 81 1010.9
20260505031525 71 140 5.2 11.3 0.00 0.00 0.00 80 1011.1
20260505030024 71 184 5.2 12.2 0.00 0.00 0.00 80 1011.1
20260505021526 72 217 3.5 12.2 0.00 0.00 0.00 78 1010.8
20260505020024 73 229 3.5 10.4 0.00 0.00 0.00 78 1010.8
20260505014514 73 232 7.0 15.6 0.00 0.00 0.00 77 1010.5
20260505013019 74 155 6.1 13.0 0.00 0.00 0.00 77 1010.4
20260505011524 74 199 6.1 12.2 0.00 0.00 0.00 76 1010.3
20260505010024 75 186 5.2 11.3 0.00 0.00 0.00 75 1010.1
20260505004526 75 249 4.3 10.4 0.00 0.00 0.00 73 1010.2
20260505003018 76 143 6.1 13.0 0.00 0.00 0.00 72 1010.4
20260505001519 76 172 2.6 10.4 0.00 0.00 0.00 72 1010.3
20260505000028 76 188 5.2 13.0 0.00 0.00 0.00 72 1010.5
20260504234524 77 188 7.0 13.9 0.00 0.00 0.00 71 1010.7
20260504233024 77 207 7.0 16.5 0.00 0.00 0.00 70 1010.6
20260504231517 79 37 6.1 13.0 0.00 0.00 0.00 68 1010.8
20260504230020 78 124 6.1 15.6 0.00 0.00 0.00 69 1010.8
20260504224526 79 165 8.7 14.8 0.00 0.00 0.00 66 1010.8